contact:dominique.lefevre@mio.osupytheas.fr, maurice.libes@osupytheas.fr, didier.mallarino@osupytheas.fr
Project:EMSO http://www.emso-fr.org/EMSO-France
Depth: 2436.0 m
Title:EMSO Ligure Ouest : Data MII capteur MICROCAT
DateTime_Computer,Latitude,Longitude,Temperature,Conductivity,Pressure,DateTime_Instrument
DateTime_Computer,Latitude,Longitude,degC,S m-1,dbar,DateTime_Instrument
2024-04-06T00:01:00Z,42.805,6.029,13.3059,4.60163,2470.847,2024-4-06T02:03:39Z
2024-04-06T00:04:03Z,42.805,6.029,13.3052,4.60160,2470.833,2024-4-06T02:06:42Z
2024-04-06T00:07:06Z,42.805,6.029,13.3060,4.60160,2470.833,2024-4-06T02:09:45Z
2024-04-06T00:10:09Z,42.805,6.029,13.3053,4.60160,2470.833,2024-4-06T02:12:48Z
2024-04-06T00:13:12Z,42.805,6.029,13.3056,4.60157,2470.833,2024-4-06T02:15:51Z
2024-04-06T00:16:15Z,42.805,6.029,13.3054,4.60152,2470.857,2024-4-06T02:18:54Z
2024-04-06T00:19:18Z,42.805,6.029,13.3054,4.60154,2470.81,2024-4-06T02:21:57Z
2024-04-06T00:22:21Z,42.805,6.029,13.3056,4.60158,2470.81,2024-4-06T02:25:00Z
2024-04-06T00:25:24Z,42.805,6.029,13.3053,4.60150,2470.833,2024-4-06T02:28:04Z
2024-04-06T00:28:27Z,42.805,6.029,13.3061,4.60156,2470.847,2024-4-06T02:31:07Z
2024-04-06T00:31:30Z,42.805,6.029,13.3056,4.60162,2470.847,2024-4-06T02:34:10Z
2024-04-06T00:34:33Z,42.805,6.029,13.3058,4.60160,2470.833,2024-4-06T02:37:13Z
2024-04-06T00:37:36Z,42.805,6.029,13.3061,4.60167,2470.857,2024-4-06T02:40:16Z
2024-04-06T00:40:40Z,42.805,6.029,13.3061,4.60162,2470.833,2024-4-06T02:43:19Z
2024-04-06T00:43:43Z,42.805,6.029,13.3055,4.60155,2470.857,2024-4-06T02:46:22Z
2024-04-06T00:46:46Z,42.805,6.029,13.3056,4.60162,2470.88,2024-4-06T02:49:25Z
2024-04-06T00:49:49Z,42.805,6.029,13.3053,4.60158,2470.847,2024-4-06T02:52:28Z
2024-04-06T00:52:52Z,42.805,6.029,13.3056,4.60154,2470.857,2024-4-06T02:55:31Z
2024-04-06T00:55:55Z,42.805,6.029,13.3055,4.60152,2470.833,2024-4-06T02:58:34Z
2024-04-06T00:58:58Z,42.805,6.029,13.3052,4.60165,2470.833,2024-4-06T03:01:37Z
2024-04-06T01:02:01Z,42.805,6.029,13.3056,4.60150,2470.847,2024-4-06T03:04:40Z
2024-04-06T01:05:04Z,42.805,6.029,13.3057,4.60149,2470.871,2024-4-06T03:07:44Z
2024-04-06T01:08:07Z,42.805,6.029,13.3056,4.60150,2470.847,2024-4-06T03:10:47Z
2024-04-06T01:11:10Z,42.805,6.029,13.3051,4.60155,2470.857,2024-4-06T03:13:50Z
2024-04-06T01:14:13Z,42.805,6.029,13.3052,4.60152,2470.857,2024-4-06T03:16:53Z
2024-04-06T01:17:17Z,42.805,6.029,13.3054,4.60159,2470.88,2024-4-06T03:19:56Z
2024-04-06T01:20:20Z,42.805,6.029,13.3051,4.60150,2470.904,2024-4-06T03:22:59Z
2024-04-06T01:23:23Z,42.805,6.029,13.3056,4.60152,2470.871,2024-4-06T03:26:02Z
2024-04-06T01:26:26Z,42.805,6.029,13.3054,4.60162,2470.871,2024-4-06T03:29:05Z
2024-04-06T01:29:29Z,42.805,6.029,13.3052,4.60165,2470.857,2024-4-06T03:32:08Z
2024-04-06T01:32:32Z,42.805,6.029,13.3051,4.60146,2470.88,2024-4-06T03:35:11Z
2024-04-06T01:35:35Z,42.805,6.029,13.3054,4.60149,2470.904,2024-4-06T03:38:14Z
2024-04-06T01:38:38Z,42.805,6.029,13.3054,4.60164,2470.88,2024-4-06T03:41:17Z
2024-04-06T01:41:41Z,42.805,6.029,13.3058,4.60149,2470.904,2024-4-06T03:44:20Z
2024-04-06T01:44:44Z,42.805,6.029,13.3054,4.60150,2470.894,2024-4-06T03:47:23Z
2024-04-06T01:47:47Z,42.805,6.029,13.3054,4.60151,2470.88,2024-4-06T03:50:27Z
2024-04-06T01:50:50Z,42.805,6.029,13.3052,4.60162,2470.88,2024-4-06T03:53:30Z
2024-04-06T01:53:53Z,42.805,6.029,13.3050,4.60146,2470.88,2024-4-06T03:56:33Z
2024-04-06T01:56:56Z,42.805,6.029,13.3059,4.60154,2470.917,2024-4-06T03:59:36Z
2024-04-06T02:00:00Z,42.805,6.029,13.3055,4.60158,2470.94,2024-4-06T04:02:39Z
2024-04-06T02:03:03Z,42.805,6.029,13.3051,4.60164,2470.927,2024-4-06T04:05:42Z
2024-04-06T02:06:06Z,42.805,6.029,13.3055,4.60157,2470.964,2024-4-06T04:08:45Z
2024-04-06T02:09:09Z,42.805,6.029,13.3048,4.60151,2470.917,2024-4-06T04:11:48Z
2024-04-06T02:12:12Z,42.805,6.029,13.3056,4.60158,2470.927,2024-4-06T04:14:51Z
2024-04-06T02:15:15Z,42.805,6.029,13.3053,4.60155,2470.94,2024-4-06T04:17:54Z
2024-04-06T02:18:18Z,42.805,6.029,13.3052,4.60147,2470.94,2024-4-06T04:20:57Z
2024-04-06T02:21:21Z,42.805,6.029,13.3054,4.60158,2470.904,2024-4-06T04:24:00Z
2024-04-06T02:24:24Z,42.805,6.029,13.3054,4.60147,2470.917,2024-4-06T04:27:03Z
2024-04-06T02:27:27Z,42.805,6.029,13.3048,4.60150,2470.927,2024-4-06T04:30:07Z
2024-04-06T02:30:30Z,42.805,6.029,13.3052,4.60152,2470.94,2024-4-06T04:33:10Z
2024-04-06T02:33:33Z,42.805,6.029,13.3053,4.60157,2470.95,2024-4-06T04:36:13Z
2024-04-06T02:36:36Z,42.805,6.029,13.3050,4.60151,2470.927,2024-4-06T04:39:16Z
2024-04-06T02:39:40Z,42.805,6.029,13.3050,4.60155,2470.964,2024-4-06T04:42:19Z
2024-04-06T02:42:43Z,42.805,6.029,13.3053,4.60160,2470.95,2024-4-06T04:45:22Z
2024-04-06T02:45:46Z,42.805,6.029,13.3054,4.60151,2470.973,2024-4-06T04:48:25Z
2024-04-06T02:48:49Z,42.805,6.029,13.3056,4.60157,2470.973,2024-4-06T04:51:28Z
2024-04-06T02:51:52Z,42.805,6.029,13.3057,4.60164,2470.973,2024-4-06T04:54:31Z
2024-04-06T02:54:55Z,42.805,6.029,13.3058,4.60156,2470.95,2024-4-06T04:57:34Z
2024-04-06T02:57:58Z,42.805,6.029,13.3054,4.60166,2470.973,2024-4-06T05:00:37Z
2024-04-06T03:01:01Z,42.805,6.029,13.3056,4.60157,2470.987,2024-4-06T05:03:40Z
2024-04-06T03:04:04Z,42.805,6.029,13.3056,4.60151,2470.987,2024-4-06T05:06:43Z
2024-04-06T03:07:07Z,42.805,6.029,13.3054,4.60157,2470.997,2024-4-06T05:09:47Z
2024-04-06T03:10:10Z,42.805,6.029,13.3053,4.60167,2470.997,2024-4-06T05:12:50Z
2024-04-06T03:13:13Z,42.805,6.029,13.3053,4.60152,2470.973,2024-4-06T05:15:53Z
2024-04-06T03:16:16Z,42.805,6.029,13.3046,4.60147,2471.01,2024-4-06T05:18:56Z
2024-04-06T03:19:20Z,42.805,6.029,13.3051,4.60154,2471.02,2024-4-06T05:21:59Z
2024-04-06T03:22:23Z,42.805,6.029,13.3053,4.60155,2471.01,2024-4-06T05:25:02Z
2024-04-06T03:25:26Z,42.805,6.029,13.3050,4.60147,2471.02,2024-4-06T05:28:05Z
2024-04-06T03:28:29Z,42.805,6.029,13.3050,4.60148,2470.973,2024-4-06T05:31:08Z
2024-04-06T03:31:32Z,42.805,6.029,13.3051,4.60151,2471.02,2024-4-06T05:34:11Z
2024-04-06T03:34:35Z,42.805,6.029,13.3055,4.60158,2471.01,2024-4-06T05:37:14Z
2024-04-06T03:37:38Z,42.805,6.029,13.3051,4.60152,2470.973,2024-4-06T05:40:17Z
2024-04-06T03:40:41Z,42.805,6.029,13.3048,4.60155,2471.02,2024-4-06T05:43:20Z
2024-04-06T03:43:44Z,42.805,6.029,13.3053,4.60151,2470.997,2024-4-06T05:46:23Z
2024-04-06T03:46:47Z,42.805,6.029,13.3048,4.60160,2471.02,2024-4-06T05:49:26Z
2024-04-06T03:49:50Z,42.805,6.029,13.3048,4.60155,2471.02,2024-4-06T05:52:30Z
2024-04-06T03:52:53Z,42.805,6.029,13.3054,4.60157,2470.997,2024-4-06T05:55:33Z
2024-04-06T03:55:56Z,42.805,6.029,13.3051,4.60151,2471.02,2024-4-06T05:58:36Z
2024-04-06T03:58:59Z,42.805,6.029,13.3052,4.60167,2471.02,2024-4-06T06:01:39Z
2024-04-06T04:02:03Z,42.805,6.029,13.3054,4.60155,2471.043,2024-4-06T06:04:42Z
2024-04-06T04:05:06Z,42.805,6.029,13.3043,4.60156,2471.043,2024-4-06T06:07:45Z
2024-04-06T04:08:09Z,42.805,6.029,13.3056,4.60163,2471.02,2024-4-06T06:10:48Z
2024-04-06T04:11:12Z,42.805,6.029,13.3051,4.60167,2471.076,2024-4-06T06:13:51Z
2024-04-06T04:14:15Z,42.805,6.029,13.3055,4.60169,2471.043,2024-4-06T06:16:54Z
2024-04-06T04:17:18Z,42.805,6.029,13.3053,4.60160,2471.057,2024-4-06T06:19:57Z
2024-04-06T04:20:21Z,42.805,6.029,13.3052,4.60152,2471.057,2024-4-06T06:23:00Z
2024-04-06T04:23:24Z,42.805,6.029,13.3052,4.60159,2471.081,2024-4-06T06:26:03Z
2024-04-06T04:26:27Z,42.805,6.029,13.3054,4.60159,2471.043,2024-4-06T06:29:07Z
2024-04-06T04:29:30Z,42.805,6.029,13.3052,4.60150,2471.067,2024-4-06T06:32:10Z
2024-04-06T04:32:33Z,42.805,6.029,13.3058,4.60161,2471.02,2024-4-06T06:35:13Z
2024-04-06T04:35:36Z,42.805,6.029,13.3053,4.60160,2471.043,2024-4-06T06:38:16Z
2024-04-06T04:38:39Z,42.805,6.029,13.3056,4.60160,2471.104,2024-4-06T06:41:19Z
2024-04-06T04:41:43Z,42.805,6.029,13.3055,4.60154,2471.043,2024-4-06T06:44:22Z
2024-04-06T04:44:46Z,42.805,6.029,13.3052,4.60151,2471.02,2024-4-06T06:47:25Z
2024-04-06T04:47:49Z,42.805,6.029,13.3050,4.60157,2471.081,2024-4-06T06:50:28Z
2024-04-06T04:50:52Z,42.805,6.029,13.3058,4.60155,2471.081,2024-4-06T06:53:31Z
2024-04-06T04:53:55Z,42.805,6.029,13.3057,4.60160,2471.043,2024-4-06T06:56:34Z
2024-04-06T04:56:58Z,42.805,6.029,13.3045,4.60154,2471.043,2024-4-06T06:59:37Z
2024-04-06T05:00:01Z,42.805,6.029,13.3054,4.60160,2471.081,2024-4-06T07:02:40Z
2024-04-06T05:03:04Z,42.805,6.029,13.3054,4.60162,2471.057,2024-4-06T07:05:43Z
2024-04-06T05:06:07Z,42.805,6.029,13.3057,4.60165,2471.081,2024-4-06T07:08:46Z
2024-04-06T05:09:10Z,42.805,6.029,13.3052,4.60157,2471.057,2024-4-06T07:11:50Z
2024-04-06T05:12:13Z,42.805,6.029,13.3054,4.60156,2471.067,2024-4-06T07:14:53Z
2024-04-06T05:15:16Z,42.805,6.029,13.3056,4.60154,2471.104,2024-4-06T07:17:56Z
2024-04-06T05:18:19Z,42.805,6.029,13.3053,4.60156,2471.081,2024-4-06T07:20:59Z
2024-04-06T05:21:23Z,42.805,6.029,13.3053,4.60156,2471.067,2024-4-06T07:24:02Z
2024-04-06T05:24:26Z,42.805,6.029,13.3055,4.60164,2471.057,2024-4-06T07:27:05Z
2024-04-06T05:27:29Z,42.805,6.029,13.3055,4.60153,2471.081,2024-4-06T07:30:08Z
2024-04-06T05:30:32Z,42.805,6.029,13.3056,4.60163,2471.043,2024-4-06T07:33:11Z
2024-04-06T05:33:35Z,42.805,6.029,13.3059,4.60160,2471.09,2024-4-06T07:36:14Z
2024-04-06T05:36:38Z,42.805,6.029,13.3052,4.60152,2471.104,2024-4-06T07:39:17Z
2024-04-06T05:39:41Z,42.805,6.029,13.3053,4.60157,2471.067,2024-4-06T07:42:20Z
2024-04-06T05:42:44Z,42.805,6.029,13.3056,4.60155,2471.043,2024-4-06T07:45:23Z
2024-04-06T05:45:47Z,42.805,6.029,13.3058,4.60152,2471.067,2024-4-06T07:48:26Z
2024-04-06T05:48:50Z,42.805,6.029,13.3053,4.60152,2471.081,2024-4-06T07:51:30Z
2024-04-06T05:51:53Z,42.805,6.029,13.3056,4.60164,2471.057,2024-4-06T07:54:33Z
2024-04-06T05:54:56Z,42.805,6.029,13.3058,4.60167,2471.067,2024-4-06T07:57:36Z
2024-04-06T05:57:59Z,42.805,6.029,13.3054,4.60160,2471.104,2024-4-06T08:00:39Z
2024-04-06T06:01:03Z,42.805,6.029,13.3057,4.60157,2471.081,2024-4-06T08:03:42Z
2024-04-06T06:04:06Z,42.805,6.029,13.3058,4.60160,2471.081,2024-4-06T08:06:45Z
2024-04-06T06:07:09Z,42.805,6.029,13.3054,4.60155,2471.09,2024-4-06T08:09:48Z
2024-04-06T06:10:12Z,42.805,6.029,13.3057,4.60155,2471.043,2024-4-06T08:12:51Z
2024-04-06T06:13:15Z,42.805,6.029,13.3058,4.60162,2471.081,2024-4-06T08:15:54Z
2024-04-06T06:16:18Z,42.805,6.029,13.3053,4.60157,2471.067,2024-4-06T08:18:57Z
2024-04-06T06:19:21Z,42.805,6.029,13.3065,4.60157,2471.104,2024-4-06T08:22:00Z
2024-04-06T06:22:24Z,42.805,6.029,13.3057,4.60164,2471.09,2024-4-06T08:25:03Z
2024-04-06T06:25:27Z,42.805,6.029,13.3055,4.60155,2471.104,2024-4-06T08:28:06Z
2024-04-06T06:28:30Z,42.805,6.029,13.3062,4.60160,2471.113,2024-4-06T08:31:09Z
2024-04-06T06:31:33Z,42.805,6.029,13.3056,4.60162,2471.043,2024-4-06T08:34:13Z
2024-04-06T06:34:36Z,42.805,6.029,13.3052,4.60154,2471.067,2024-4-06T08:37:16Z
2024-04-06T06:37:39Z,42.805,6.029,13.3057,4.60160,2471.057,2024-4-06T08:40:19Z
2024-04-06T06:40:42Z,42.805,6.029,13.3061,4.60170,2471.104,2024-4-06T08:43:22Z
2024-04-06T06:43:45Z,42.805,6.029,13.3061,4.60178,2471.067,2024-4-06T08:46:25Z
2024-04-06T06:46:49Z,42.805,6.029,13.3060,4.60175,2471.067,2024-4-06T08:49:28Z
2024-04-06T06:49:52Z,42.805,6.029,13.3063,4.60173,2471.081,2024-4-06T08:52:31Z
2024-04-06T06:52:55Z,42.805,6.029,13.3059,4.60173,2471.067,2024-4-06T08:55:34Z
2024-04-06T06:55:58Z,42.805,6.029,13.3057,4.60158,2471.043,2024-4-06T08:58:37Z
2024-04-06T06:59:01Z,42.805,6.029,13.3055,4.60171,2471.057,2024-4-06T09:01:40Z
2024-04-06T07:02:04Z,42.805,6.029,13.3060,4.60165,2471.057,2024-4-06T09:04:43Z
2024-04-06T07:05:07Z,42.805,6.029,13.3058,4.60159,2471.043,2024-4-06T09:07:46Z
2024-04-06T07:08:10Z,42.805,6.029,13.3061,4.60156,2471.067,2024-4-06T09:10:49Z
2024-04-06T07:11:13Z,42.805,6.029,13.3061,4.60168,2471.043,2024-4-06T09:13:52Z
2024-04-06T07:14:16Z,42.805,6.029,13.3061,4.60167,2471.057,2024-4-06T09:16:56Z
2024-04-06T07:17:19Z,42.805,6.029,13.3057,4.60157,2471.057,2024-4-06T09:19:59Z
2024-04-06T07:20:22Z,42.805,6.029,13.3054,4.60159,2471.02,2024-4-06T09:23:02Z
2024-04-06T07:23:25Z,42.805,6.029,13.3063,4.60161,2471.034,2024-4-06T09:26:05Z
2024-04-06T07:26:28Z,42.805,6.029,13.3057,4.60172,2471.01,2024-4-06T09:29:08Z
2024-04-06T07:29:32Z,42.805,6.029,13.3055,4.60157,2471.034,2024-4-06T09:32:11Z
2024-04-06T07:32:35Z,42.805,6.029,13.3054,4.60165,2471.02,2024-4-06T09:35:14Z
2024-04-06T07:35:38Z,42.805,6.029,13.3063,4.60160,2471.034,2024-4-06T09:38:17Z
2024-04-06T07:38:41Z,42.805,6.029,13.3059,4.60163,2471.043,2024-4-06T09:41:20Z
2024-04-06T07:41:44Z,42.805,6.029,13.3066,4.60167,2471.034,2024-4-06T09:44:23Z
2024-04-06T07:44:47Z,42.805,6.029,13.3059,4.60157,2471.034,2024-4-06T09:47:26Z
2024-04-06T07:47:50Z,42.805,6.029,13.3054,4.60155,2471.057,2024-4-06T09:50:29Z
2024-04-06T07:50:53Z,42.805,6.029,13.3061,4.60167,2470.997,2024-4-06T09:53:32Z
2024-04-06T07:53:56Z,42.805,6.029,13.3054,4.60152,2470.997,2024-4-06T09:56:36Z
2024-04-06T07:56:59Z,42.805,6.029,13.3060,4.60154,2471.02,2024-4-06T09:59:39Z
2024-04-06T08:00:02Z,42.805,6.029,13.3058,4.60159,2471.01,2024-4-06T10:02:42Z
2024-04-06T08:03:05Z,42.805,6.029,13.3058,4.60170,2471.02,2024-4-06T10:05:45Z
2024-04-06T08:06:09Z,42.805,6.029,13.3058,4.60170,2471.01,2024-4-06T10:08:48Z
2024-04-06T08:09:12Z,42.805,6.029,13.3055,4.60180,2471.034,2024-4-06T10:11:51Z
2024-04-06T08:12:15Z,42.805,6.029,13.3061,4.60161,2470.973,2024-4-06T10:14:54Z
2024-04-06T08:15:18Z,42.805,6.029,13.3059,4.60158,2470.997,2024-4-06T10:17:57Z
2024-04-06T08:18:21Z,42.805,6.029,13.3062,4.60174,2471.034,2024-4-06T10:21:00Z
2024-04-06T08:21:24Z,42.805,6.029,13.3052,4.60157,2471.01,2024-4-06T10:24:03Z
2024-04-06T08:24:27Z,42.805,6.029,13.3058,4.60162,2470.997,2024-4-06T10:27:06Z
2024-04-06T08:27:30Z,42.805,6.029,13.3059,4.60175,2471.01,2024-4-06T10:30:09Z
2024-04-06T08:30:33Z,42.805,6.029,13.3062,4.60164,2470.997,2024-4-06T10:33:13Z
2024-04-06T08:33:36Z,42.805,6.029,13.3061,4.60170,2470.997,2024-4-06T10:36:16Z
2024-04-06T08:36:39Z,42.805,6.029,13.3061,4.60158,2470.987,2024-4-06T10:39:19Z
2024-04-06T08:39:42Z,42.805,6.029,13.3056,4.60165,2470.973,2024-4-06T10:42:22Z
2024-04-06T08:42:45Z,42.805,6.029,13.3060,4.60161,2470.973,2024-4-06T10:45:25Z
2024-04-06T08:45:49Z,42.805,6.029,13.3054,4.60156,2471.01,2024-4-06T10:48:28Z
2024-04-06T08:48:52Z,42.805,6.029,13.3056,4.60151,2470.964,2024-4-06T10:51:31Z
2024-04-06T08:51:55Z,42.805,6.029,13.3058,4.60155,2470.987,2024-4-06T10:54:34Z
2024-04-06T08:54:58Z,42.805,6.029,13.3058,4.60156,2470.987,2024-4-06T10:57:37Z
2024-04-06T08:58:01Z,42.805,6.029,13.3058,4.60166,2470.987,2024-4-06T11:00:40Z
2024-04-06T09:01:04Z,42.805,6.029,13.3058,4.60157,2470.987,2024-4-06T11:03:43Z
2024-04-06T09:04:07Z,42.805,6.029,13.3055,4.60173,2470.987,2024-4-06T11:06:46Z
2024-04-06T09:07:10Z,42.805,6.029,13.3056,4.60157,2470.973,2024-4-06T11:09:49Z
2024-04-06T09:10:13Z,42.805,6.029,13.3056,4.60152,2470.973,2024-4-06T11:12:53Z
2024-04-06T09:13:16Z,42.805,6.029,13.3061,4.60161,2470.973,2024-4-06T11:15:56Z
2024-04-06T09:16:19Z,42.805,6.029,13.3062,4.60157,2470.94,2024-4-06T11:18:59Z
2024-04-06T09:19:22Z,42.805,6.029,13.3052,4.60155,2470.973,2024-4-06T11:22:02Z
2024-04-06T09:22:26Z,42.805,6.029,13.3058,4.60157,2470.973,2024-4-06T11:25:05Z
2024-04-06T09:25:29Z,42.805,6.029,13.3054,4.60170,2470.964,2024-4-06T11:28:08Z
2024-04-06T09:28:32Z,42.805,6.029,13.3061,4.60174,2470.964,2024-4-06T11:31:11Z
2024-04-06T09:31:35Z,42.805,6.029,13.3053,4.60157,2470.927,2024-4-06T11:34:14Z
2024-04-06T09:34:38Z,42.805,6.029,13.3055,4.60160,2470.927,2024-4-06T11:37:17Z
2024-04-06T09:37:41Z,42.805,6.029,13.3054,4.60162,2470.964,2024-4-06T11:40:20Z
2024-04-06T09:40:44Z,42.805,6.029,13.3056,4.60157,2470.964,2024-4-06T11:43:23Z
2024-04-06T09:43:47Z,42.805,6.029,13.3056,4.60172,2470.927,2024-4-06T11:46:26Z
2024-04-06T09:46:50Z,42.805,6.029,13.3055,4.60166,2470.94,2024-4-06T11:49:30Z
2024-04-06T09:49:53Z,42.805,6.029,13.3062,4.60181,2470.94,2024-4-06T11:52:33Z
2024-04-06T09:52:56Z,42.805,6.029,13.3054,4.60164,2470.927,2024-4-06T11:55:36Z
2024-04-06T09:55:59Z,42.805,6.029,13.3054,4.60164,2470.927,2024-4-06T11:58:39Z
2024-04-06T09:59:03Z,42.805,6.029,13.3054,4.60161,2470.917,2024-4-06T12:01:42Z
2024-04-06T10:02:06Z,42.805,6.029,13.3058,4.60173,2470.904,2024-4-06T12:04:45Z
2024-04-06T10:05:09Z,42.805,6.029,13.3053,4.60158,2470.904,2024-4-06T12:07:48Z
2024-04-06T10:08:12Z,42.805,6.029,13.3056,4.60165,2470.917,2024-4-06T12:10:51Z
2024-04-06T10:11:15Z,42.805,6.029,13.3054,4.60152,2470.927,2024-4-06T12:13:54Z
2024-04-06T10:14:18Z,42.805,6.029,13.3053,4.60157,2470.95,2024-4-06T12:16:57Z
2024-04-06T10:17:21Z,42.805,6.029,13.3049,4.60154,2470.904,2024-4-06T12:20:00Z
2024-04-06T10:20:24Z,42.805,6.029,13.3056,4.60150,2470.917,2024-4-06T12:23:03Z
2024-04-06T10:23:27Z,42.805,6.029,13.3053,4.60161,2470.904,2024-4-06T12:26:06Z
2024-04-06T10:26:30Z,42.805,6.029,13.3049,4.60152,2470.88,2024-4-06T12:29:10Z
2024-04-06T10:29:33Z,42.805,6.029,13.3056,4.60152,2470.904,2024-4-06T12:32:13Z
2024-04-06T10:32:36Z,42.805,6.029,13.3051,4.60156,2470.904,2024-4-06T12:35:16Z
2024-04-06T10:35:39Z,42.805,6.029,13.3048,4.60152,2470.894,2024-4-06T12:38:19Z
2024-04-06T10:38:43Z,42.805,6.029,13.3053,4.60155,2470.871,2024-4-06T12:41:22Z
2024-04-06T10:41:46Z,42.805,6.029,13.3055,4.60151,2470.88,2024-4-06T12:44:25Z
2024-04-06T10:44:49Z,42.805,6.029,13.3053,4.60156,2470.917,2024-4-06T12:47:28Z
2024-04-06T10:47:52Z,42.805,6.029,13.3049,4.60158,2470.871,2024-4-06T12:50:31Z
2024-04-06T10:50:55Z,42.805,6.029,13.3055,4.60145,2470.88,2024-4-06T12:53:34Z
2024-04-06T10:53:58Z,42.805,6.029,13.3054,4.60152,2470.894,2024-4-06T12:56:37Z
2024-04-06T10:57:01Z,42.805,6.029,13.3050,4.60162,2470.871,2024-4-06T12:59:40Z
2024-04-06T11:00:04Z,42.805,6.029,13.3046,4.60146,2470.871,2024-4-06T13:02:43Z
2024-04-06T11:03:07Z,42.805,6.029,13.3056,4.60151,2470.857,2024-4-06T13:05:47Z
2024-04-06T11:06:10Z,42.805,6.029,13.3054,4.60159,2470.857,2024-4-06T13:08:50Z
2024-04-06T11:09:13Z,42.805,6.029,13.3048,4.60152,2470.894,2024-4-06T13:11:53Z
2024-04-06T11:12:16Z,42.805,6.029,13.3051,4.60156,2470.894,2024-4-06T13:14:56Z
2024-04-06T11:15:20Z,42.805,6.029,13.3055,4.60167,2470.871,2024-4-06T13:17:59Z
2024-04-06T11:18:23Z,42.805,6.029,13.3051,4.60155,2470.857,2024-4-06T13:21:02Z
2024-04-06T11:21:26Z,42.805,6.029,13.3049,4.60145,2470.871,2024-4-06T13:24:05Z
2024-04-06T11:24:29Z,42.805,6.029,13.3050,4.60152,2470.847,2024-4-06T13:27:08Z
2024-04-06T11:27:32Z,42.805,6.029,13.3052,4.60145,2470.857,2024-4-06T13:30:11Z
2024-04-06T11:30:35Z,42.805,6.029,13.3047,4.60144,2470.857,2024-4-06T13:33:14Z
2024-04-06T11:33:38Z,42.805,6.029,13.3046,4.60160,2470.847,2024-4-06T13:36:17Z
2024-04-06T11:36:41Z,42.805,6.029,13.3051,4.60147,2470.847,2024-4-06T13:39:20Z
2024-04-06T11:39:44Z,42.805,6.029,13.3057,4.60151,2470.871,2024-4-06T13:42:24Z
2024-04-06T11:42:47Z,42.805,6.029,13.3057,4.60152,2470.833,2024-4-06T13:45:27Z
2024-04-06T11:45:50Z,42.805,6.029,13.3051,4.60150,2470.833,2024-4-06T13:48:30Z
2024-04-06T11:48:53Z,42.805,6.029,13.3051,4.60164,2470.824,2024-4-06T13:51:33Z
2024-04-06T11:51:57Z,42.805,6.029,13.3055,4.60147,2470.871,2024-4-06T13:54:36Z
2024-04-06T11:55:00Z,42.805,6.029,13.3057,4.60160,2470.81,2024-4-06T13:57:39Z
2024-04-06T11:58:03Z,42.805,6.029,13.3050,4.60144,2470.833,2024-4-06T14:00:42Z
2024-04-06T12:01:06Z,42.805,6.029,13.3054,4.60161,2470.833,2024-4-06T14:03:45Z
2024-04-06T12:04:09Z,42.805,6.029,13.3048,4.60151,2470.833,2024-4-06T14:06:48Z
2024-04-06T12:07:12Z,42.805,6.029,13.3054,4.60145,2470.833,2024-4-06T14:09:51Z
2024-04-06T12:10:15Z,42.805,6.029,13.3050,4.60148,2470.833,2024-4-06T14:12:54Z
2024-04-06T12:13:18Z,42.805,6.029,13.3048,4.60145,2470.857,2024-4-06T14:15:57Z
2024-04-06T12:16:21Z,42.805,6.029,13.3054,4.60150,2470.824,2024-4-06T14:19:00Z
2024-04-06T12:19:24Z,42.805,6.029,13.3043,4.60144,2470.847,2024-4-06T14:22:04Z
2024-04-06T12:22:27Z,42.805,6.029,13.3049,4.60155,2470.871,2024-4-06T14:25:07Z
2024-04-06T12:25:30Z,42.805,6.029,13.3054,4.60152,2470.82,2024-4-06T14:28:10Z
2024-04-06T12:28:33Z,42.805,6.029,13.3050,4.60147,2470.81,2024-4-06T14:31:13Z
2024-04-06T12:31:37Z,42.805,6.029,13.3048,4.60167,2470.81,2024-4-06T14:34:16Z
2024-04-06T12:34:40Z,42.805,6.029,13.3060,4.60157,2470.81,2024-4-06T14:37:19Z
2024-04-06T12:37:43Z,42.805,6.029,13.3052,4.60143,2470.81,2024-4-06T14:40:22Z
2024-04-06T12:40:46Z,42.805,6.029,13.3050,4.60146,2470.847,2024-4-06T14:43:25Z
2024-04-06T12:43:49Z,42.805,6.029,13.3051,4.60152,2470.847,2024-4-06T14:46:28Z
2024-04-06T12:46:52Z,42.805,6.029,13.3051,4.60152,2470.8,2024-4-06T14:49:31Z
2024-04-06T12:49:55Z,42.805,6.029,13.3048,4.60150,2470.833,2024-4-06T14:52:34Z
2024-04-06T12:52:58Z,42.805,6.029,13.3056,4.60155,2470.833,2024-4-06T14:55:37Z
2024-04-06T12:56:01Z,42.805,6.029,13.3051,4.60147,2470.833,2024-4-06T14:58:41Z
2024-04-06T12:59:04Z,42.805,6.029,13.3048,4.60142,2470.824,2024-4-06T15:01:44Z
2024-04-06T13:02:07Z,42.805,6.029,13.3054,4.60146,2470.847,2024-4-06T15:04:47Z
2024-04-06T13:05:10Z,42.805,6.029,13.3054,4.60150,2470.82,2024-4-06T15:07:50Z
2024-04-06T13:08:13Z,42.805,6.029,13.3048,4.60149,2470.81,2024-4-06T15:10:53Z
2024-04-06T13:11:17Z,42.805,6.029,13.3050,4.60149,2470.833,2024-4-06T15:13:56Z
2024-04-06T13:14:20Z,42.805,6.029,13.3051,4.60155,2470.824,2024-4-06T15:16:59Z
2024-04-06T13:17:23Z,42.805,6.029,13.3052,4.60160,2470.833,2024-4-06T15:20:02Z
2024-04-06T13:20:26Z,42.805,6.029,13.3052,4.60146,2470.833,2024-4-06T15:23:05Z
2024-04-06T13:23:29Z,42.805,6.029,13.3044,4.60144,2470.833,2024-4-06T15:26:08Z
2024-04-06T13:26:32Z,42.805,6.029,13.3052,4.60150,2470.847,2024-4-06T15:29:11Z
2024-04-06T13:29:35Z,42.805,6.029,13.3051,4.60152,2470.847,2024-4-06T15:32:14Z
2024-04-06T13:32:38Z,42.805,6.029,13.3050,4.60152,2470.81,2024-4-06T15:35:17Z
2024-04-06T13:35:41Z,42.805,6.029,13.3047,4.60149,2470.871,2024-4-06T15:38:21Z
2024-04-06T13:38:44Z,42.805,6.029,13.3050,4.60150,2470.857,2024-4-06T15:41:24Z
2024-04-06T13:41:47Z,42.805,6.029,13.3046,4.60142,2470.81,2024-4-06T15:44:27Z
2024-04-06T13:44:50Z,42.805,6.029,13.3048,4.60147,2470.857,2024-4-06T15:47:30Z
2024-04-06T13:47:54Z,42.805,6.029,13.3047,4.60154,2470.871,2024-4-06T15:50:33Z
2024-04-06T13:50:57Z,42.805,6.029,13.3048,4.60150,2470.81,2024-4-06T15:53:36Z
2024-04-06T13:54:00Z,42.805,6.029,13.3051,4.60152,2470.857,2024-4-06T15:56:39Z
2024-04-06T13:57:03Z,42.805,6.029,13.3050,4.60141,2470.917,2024-4-06T15:59:42Z
2024-04-06T14:00:06Z,42.805,6.029,13.3054,4.60154,2470.847,2024-4-06T16:02:45Z
2024-04-06T14:03:09Z,42.805,6.029,13.3044,4.60148,2470.871,2024-4-06T16:05:48Z
2024-04-06T14:06:12Z,42.805,6.029,13.3051,4.60147,2470.81,2024-4-06T16:08:51Z
2024-04-06T14:09:15Z,42.805,6.029,13.3054,4.60149,2470.847,2024-4-06T16:11:54Z
2024-04-06T14:12:18Z,42.805,6.029,13.3047,4.60144,2470.857,2024-4-06T16:14:58Z
2024-04-06T14:15:21Z,42.805,6.029,13.3050,4.60150,2470.871,2024-4-06T16:18:01Z
2024-04-06T14:18:24Z,42.805,6.029,13.3046,4.60150,2470.857,2024-4-06T16:21:04Z
2024-04-06T14:21:27Z,42.805,6.029,13.3048,4.60150,2470.833,2024-4-06T16:24:07Z
2024-04-06T14:24:30Z,42.805,6.029,13.3057,4.60157,2470.871,2024-4-06T16:27:10Z
2024-04-06T14:27:34Z,42.805,6.029,13.3051,4.60152,2470.857,2024-4-06T16:30:13Z
2024-04-06T14:30:37Z,42.805,6.029,13.3048,4.60153,2470.833,2024-4-06T16:33:16Z
2024-04-06T14:33:40Z,42.805,6.029,13.3048,4.60149,2470.857,2024-4-06T16:36:19Z
2024-04-06T14:36:43Z,42.805,6.029,13.3049,4.60148,2470.88,2024-4-06T16:39:22Z
2024-04-06T14:39:46Z,42.805,6.029,13.3049,4.60145,2470.833,2024-4-06T16:42:25Z
2024-04-06T14:42:49Z,42.805,6.029,13.3048,4.60143,2470.88,2024-4-06T16:45:28Z
2024-04-06T14:45:52Z,42.805,6.029,13.3048,4.60149,2470.88,2024-4-06T16:48:31Z
2024-04-06T14:48:55Z,42.805,6.029,13.3051,4.60151,2470.871,2024-4-06T16:51:35Z
2024-04-06T14:51:58Z,42.805,6.029,13.3048,4.60159,2470.917,2024-4-06T16:54:38Z
2024-04-06T14:55:01Z,42.805,6.029,13.3049,4.60144,2470.88,2024-4-06T16:57:41Z
2024-04-06T14:58:04Z,42.805,6.029,13.3046,4.60149,2470.871,2024-4-06T17:00:44Z
2024-04-06T15:01:08Z,42.805,6.029,13.3050,4.60150,2470.89,2024-4-06T17:03:47Z
2024-04-06T15:04:11Z,42.805,6.029,13.3047,4.60149,2470.904,2024-4-06T17:06:50Z
2024-04-06T15:07:14Z,42.805,6.029,13.3051,4.60148,2470.894,2024-4-06T17:09:53Z
2024-04-06T15:10:17Z,42.805,6.029,13.3048,4.60144,2470.917,2024-4-06T17:12:56Z